National Weather Service United States Department of Commerce

Latest Hourly Weather Roundup

TOPSWRTT 000
TTAA00 KICT 060912

Wichita AWIPS Roundup
National Weather Service Wichita KS
400 AM CDT THU MAY 06 2021

....Central Kansas....
  
CITY           SKY/WX    TMP DP  RH WIND       PRES   REMARKS
RUSSELL        CLEAR     46  38  73 N9        30.23R                  
SALINA         CLEAR     47  44  90 NW9       30.20R                  
GREAT BEND     CLEAR     42  41  96 NW7       30.24R WCI  38          
ELLSWORTH      CLEAR     43  43 100 W8        30.23R WCI  38          
LYONS          FAIR      46  43  91 NW8       30.21S                  
MCPHERSON      CLEAR     45  45 100 NW5       30.20S                  
HAYS           CLEAR     42  39  89 W5        30.26R WCI  39          

....South Central Kansas....
  
CITY           SKY/WX    TMP DP  RH WIND       PRES   REMARKS
HUTCHINSON     CLEAR     50  44  80 W10       30.21R                  
NEWTON         CLEAR     48  45  89 W9        30.20S                  
KINGMAN        CLEAR     45  45 100 W6        30.22R                  
WICHITA (ICT)  PTCLDY    48  44  86 NW6       30.20R                  
JABARA ARPT    CLEAR     50  45  83 W9        30.20R                  
BEECH ARPT     CLEAR     51  46  82 W6        30.20R                  
MCCONNELL AFB  CLEAR     51  51 100 NW7       30.20R                  
BENTON         FAIR      49  45  85 W6        30.20F                  
EL DORADO      FAIR      50  45  81 W5        30.20S                  
AUGUSTA        CLEAR     50  45  81 W6        30.20S                  
WELLINGTON     NOT AVBL                                               
WINFIELD       CLEAR     47  45  93 CALM      30.21S                  
 
....Southeast Kansas....
  
CITY           SKY/WX    TMP DP  RH WIND       PRES   REMARKS
EUREKA         CLEAR     51  46  85 W14       30.18S                  
IOLA           NOT AVBL                                               
CHANUTE        CLEAR     52  44  74 SW6       30.16R                  
PARSONS        CLEAR     47  46  97 CALM      30.18R                  
COFFEYVILLE    PTCLDY    52  45  77 SW5       30.16S                  
INDEPENDENCE   PTCLDY    51  46  82 W9        30.18S                  
FORT SCOTT     NOT AVBL                                               
PITTSBURG      CLEAR     53  46  77 SW3       30.15S                  

....Western Kansas....
  
CITY           SKY/WX    TMP DP  RH WIND       PRES   REMARKS
GOODLAND       CLEAR     34  30  85 NW7       30.31S WCI  28          
HILL CITY      PTCLDY    47  39  74 N13       30.29R                  
LIBERAL        PTCLDY    49  48  97 W6        30.28S                  
GARDEN CITY    CLEAR     40  37  89 N9        30.27S WCI  34          
DODGE CITY     CLEAR     46  44  93 NW9       30.26R                  
PRATT          CLEAR     46  45  94 NW7       30.23S                  
MEDICINE LODGE   N/A     44  40  85 N6        30.21S                  

....Northeast Kansas....
  
CITY           SKY/WX    TMP DP  RH WIND       PRES   REMARKS
CONCORDIA      PTCLDY    49  43  80 N12       30.22R                  
TOPEKA         CLEAR     54  42  64 W8        30.13R                  
MANHATTAN      CLEAR     47  41  80 CALM      30.17R                  
LAWRENCE       CLEAR     45  45 100 NW5       30.12F                  
OLATHE         PTCLDY    52  44  74 SW5       30.11S                  
EMPORIA        CLEAR     53  45  74 W9        30.16R                  

....Oklahoma....
  
CITY           SKY/WX    TMP DP  RH WIND       PRES   REMARKS
GAGE           MOCLDY    54  52  93 W5        30.24S                  
PONCA CITY     CLEAR     48  45  89 CALM      30.21R FOG              
BARTLESVILLE   PTCLDY    46  44  93 SW3       30.20R                  
TULSA          PTCLDY    53  50  89 W5        30.15R                  
OKLAHOMA CITY  CLOUDY    57  50  77 NW5       30.21R                  

Note: "fair" indicates few or no clouds below 12,000 feet with no
significant weather and/or obstructions to visibility.